STARLINK-2377, 47797

Orbit data source: Space-Track

STARLINK-2377, 47797 is a payload satellite owned by SpaceX/Seattle (US) in LEO that was launched on Thu, 11 Mar 2021 UTC via an FALCON 9 launch vehicle from the Air Force Eastern Test Range (AFETR). Payload-class satellites include a variety of spacecraft equipped with specific instruments for various scientific and technological missions. These include communications satellites like Starlink; space stations such as the ISS; scientific satellites like the Hubble; Earth observation satellites from companies like Planet Labs, Umbra, and HawkEye 360; GPS; miniature CubeSats for education and research; and military/defense satellites.

Loading next visibility...
Identifier
47797, 2021-018L
Orbit
LEO
Country
Flag of USUS
Related business
Manufacturer
SpaceX/Seattle
Mission
Operational Commercial Communications
Bus & Motor
STARLINK, Unknown motor
Mass
260 kg wet, ~248 kg dry
Launch date (UTC)
2021-03-11 (5 years ago)
Launch vehicle
FALCON 9
Launch site
Air Force Eastern Test Range (AFETR)
Object type
Payload
Rocket body
Debris
Shape & HBR
Box + 1 Pan, 10.1 m
Radar Cross Section
13.562 m², Large (>1 m²)

Expand to show TLE details & history
Last TLE update: 11 hours ago

TLE from 11 hours ago
0 STARLINK-2377
1 47797U 21018L   26120.08522187  .00003784  00000-0  13363-3 0  9991
2 47797  53.1600  16.4604 0001325  85.4002 274.7151 15.31703296284415
Epoch: 2026-04-30T02:02Z
TLE epoch observation values (Epoch: 2026-04-30T02:02:43.169Z)
Latitude
-0°
Longitude
127.74363°
Altitude
471.556 km
Speed
7.632 km/s
True Right ascension
01h 05m 50s
True Declination
0° 00' 00"
Sunlit
Object was in daylight at epoch
Visualization orbit readout
Latitude
Unknown
Longitude
Unknown
Altitude
Unknown
Speed
Unknown
Apparent Right ascension
Unknown
Apparent Declination
Unknown
Sunlit
N/A
Visualization observer readout
Local Sidereal Time
20:12:13
Azimuth
Unknown
Elevation
Unknown
Doppler factor
Unknown
Orbital elements
Apogee altitude
471.894 km
Perigee altitude
470.079 km
Semi-major axis
6,849.124 km
Eccentricity
0.00013
Inclination
53.16°
RAAN
16.4604°
Arg. of periapsis
85.4002°
True anomaly
274.69997°
Mean anomaly
274.7151°
Eccentric anomaly
274.70753°
Mean motion
3.82905 °/min
Orbital period
94.02 mins
BSTAR
0.00013363
Loading maneuver chart data...
Computing Atmospheric mass density...
Loading historical data...
Loading historical data...
Loading historical data...
Loading historical data...
Loading historical data...
Loading historical data...
Loading historical data...

Documentation

Showing up to 5 results
|